Location: Lavigne
(44.0472°N, 6.9003°E)
Time: 14:27:06
(UTC+00:00)

Daily predictions for brighter satellites

Satellite Brightness Start Highest point End
(mag) Time Altitude Azimuth Time Altitude Azimuth Time Altitude Azimuth
BREEZE M DEB (TANK) 3.7 16:42:01 10° W 16:45:16 90° S 17:04:09 10° ESE
SL-16 R/B 3.5 17:08:36 10° SE 17:12:25 19° E 17:16:16 10° ENE
Cosmos 1607 4.0 17:07:18 10° NNW 17:13:38 81° NE 17:19:48 10° SE
Lacrosse 4 Rocket 3.5 17:14:23 10° NNE 17:15:50 11° NE 17:17:18 10° ENE
ATLAS 3B R/B 3.3 17:09:40 10° SW 17:16:05 57° NW 17:22:51 10° NNE
SMAP 3.8 17:12:14 10° S 17:16:50 61° W 17:21:27 10° NNW
Cosmos 2082 3.9 17:13:24 10° NNW 17:19:02 80° WSW 17:24:39 10° SSE
CZ-2C R/B 3.0 17:21:25 10° SW 17:23:54 18° S 17:26:17 10° SE
Cosmos 1821 Rocket 4.0 17:20:26 10° S 17:26:47 73° E 17:33:08 10° NNE
ATLAS 5 CENTAUR R/B 1.2 17:23:03 10° SSW 17:26:51 74° ESE 17:31:05 10° NE
Cosmos 1703 3.3 17:23:19 10° N 17:27:11 54° E 17:30:59 10° SSE
Cosmos 2322 Rocket 3.5 17:23:49 10° SE 17:27:34 19° E 17:31:20 10° ENE
USA 267 3.7 17:21:14 10° SE 17:27:43 65° SW 17:34:14 10° NW
Cosmos 1300 3.8 17:25:34 10° SE 17:28:38 24° E 17:31:43 10° NE
SL-8 R/B 3.8 17:27:25 10° SW 17:32:10 68° SSE 17:36:19 14° ENE
Tiangong 2.4 17:29:41 10° SW 17:32:28 28° SSE 17:34:31 15° ESE
SKYMED 2 3.6 17:28:40 10° NNE 17:32:59 61° E 17:37:16 10° S
Gbstr 26 Del rocket 4.4 17:28:47 10° WNW 17:35:51 79° NNE 17:43:54 10° ESE
NOSS 3-1 (C) 3.9 17:34:32 10° S 17:39:03 31° ESE 17:44:07 10° NE
Cosmos 2360 Rocket 3.8 17:37:32 10° SE 17:39:47 14° ESE 17:39:47 14° ESE
YAOGAN 1 3.3 17:36:36 10° SE 17:40:26 32° ENE 17:44:17 10° N
SL-19 R/B 4.4 17:35:35 10° NNE 17:41:21 83° WNW 17:46:54 10° SSW
Cosmos 1455 Rocket 3.0 17:37:49 10° S 17:42:11 68° E 17:46:37 10° NNE
MOS 1-B Rocket 4.1 17:36:30 10° NNE 17:43:12 62° E 17:49:00 10° S
Cosmos 405 Rocket 2.7 17:40:03 10° N 17:44:01 71° E 17:48:00 10° SSE
Cosmos 1934 Rocket 4.0 17:39:15 10° SSE 17:45:10 53° E 17:51:03 10° NNE
CZ-4B R/B 3.4 17:40:19 10° SSE 17:45:58 82° WSW 17:51:41 10° NNW
NOSS 2-3 (C) 4.4 17:42:37 10° S 17:46:00 26° ESE 17:47:56 19° ENE
Cosmos 724 4.3 17:41:07 10° NNW 17:47:05 67° NE 17:52:52 10° SE
H-2A R/B 3.0 17:44:25 10° NE 17:47:49 24° E 17:51:14 10° SSE
SL-08 RB Rocket 3.9 17:45:49 10° SE 17:50:10 48° ENE 17:54:35 10° N
Okean O Rocket 1.6 17:46:20 10° SSE 17:50:40 87° WSW 17:55:02 10° NNW
H-2A R/B 2.6 17:48:13 10° SSE 17:52:27 53° ENE 17:56:33 10° N
Cosmos 1328 3.8 17:50:17 10° N 17:54:17 61° E 17:58:17 10° SSE
Cosmos 1544 Rocket 3.6 17:51:41 10° S 17:56:01 55° E 18:00:24 10° NNE
Cosmos 1953 3.1 17:52:27 10° SSW 17:56:25 56° W 18:00:26 10° N
CZ-4C R/B 2.8 17:55:28 10° NNE 17:58:53 89° W 18:02:11 10° SSW
DMSP B5D2-2 4.5 17:55:37 10° NNE 18:00:33 39° E 18:05:25 10° SSE
Cosmos 2227 4.2 17:55:01 10° NNW 18:00:48 72° ENE 18:06:32 10° SSE
ARGOS 3.1 17:55:43 10° SSE 18:01:06 87° ENE 18:06:34 10° NNW
Cosmos 1980 Rocket 3.1 17:58:04 10° SW 18:03:31 49° WNW 18:09:04 10° NNE
Cosmos 2263 Rocket 2.2 17:58:06 10° NNW 18:03:43 87° WSW 18:09:17 10° SSE
Cosmos 2123 Rocket 3.9 17:58:48 10° N 18:05:10 77° E 18:11:28 10° SSE
H-2A R/B 3.0 18:00:42 10° S 18:05:56 53° W 18:11:16 10° NNW
CZ-4 R/B 1.3 18:02:45 10° SSE 18:06:39 59° ENE 18:10:40 10° N
Okean-O 3.2 18:05:16 27° ESE 18:06:43 34° ENE 18:10:44 10° N
Okean 1-7 Rocket 3.5 18:06:18 10° N 18:10:43 83° E 18:15:09 10° S
Cosmos 304 Rocket 4.1 18:09:00 10° S 18:13:28 41° ESE 18:15:54 24° NE
Iridium 4 Rocket 3.4 18:14:39 10° N 18:19:11 77° W 18:24:07 10° S
Cosmos 1892 4.4 18:17:33 10° NNE 18:18:55 19° NNE 18:18:55 19° NNE
COSMO-SKYMED 1 3.9 18:16:54 10° N 18:21:00 41° WNW 18:25:04 10° SW
Cosmos 1602 Rocket 3.6 18:17:02 10° N 18:21:18 49° ENE 18:22:15 41° ESE
CZ-2C R/B 3.2 18:16:38 10° N 18:22:10 62° WNW 18:27:36 10° SSW
Cosmos 332 Rocket 3.9 18:18:19 10° S 18:23:04 52° ESE 18:25:52 23° NE
CSL-04 Rocket 4.0 18:22:16 31° ESE 18:24:24 45° ENE 18:29:40 10° N
X-37B 0.8 18:26:39 10° W 18:29:33 67° NW 18:29:33 67° NW
NOSS 2-3 (E) 3.3 18:32:10 10° SSW 18:36:08 83° SE 18:37:00 56° NE
Cosmos 1844 Rocket 3.1 18:32:40 10° NNW 18:37:56 40° ENE 18:38:02 40° ENE
USA 229 DEB 3.6 18:34:09 10° SSW 18:40:14 52° ESE 18:42:06 40° ENE
USA 229 3.6 18:34:15 10° SSW 18:40:20 52° ESE 18:42:07 41° ENE
IRS-P2 Rocket 4.4 18:46:23 47° SE 18:47:54 74° ENE 18:53:07 10° N
Cosmos 1758 Rocket 4.4 18:45:49 10° N 18:48:34 37° N 18:48:34 37° N
Cosmos 2278 Rocket 4.4 18:48:43 10° NNE 18:49:28 11° NNE 18:49:28 11° NNE
Cosmos 371 Rocket 4.1 18:46:27 10° SW 18:51:09 50° WNW 18:55:55 10° N
IRS-1C Rocket 4.2 18:47:21 11° S 18:52:28 72° WSW 18:57:44 10° NNW
Cosmos 1605 Rocket 4.1 18:46:30 10° SSW 18:52:43 75° W 18:59:05 10° N
Cosmos 2251 Rocket 3.4 18:47:40 10° NNW 18:52:48 65° ENE 18:52:48 65° ENE
Lacrosse 4 Rocket 2.0 18:50:57 10° NNW 18:54:19 51° N 18:54:19 51° N
SL-16 R/B 2.5 18:50:18 10° SW 18:55:55 66° WNW 19:01:36 10° NNE
NOSS 3-1 (A) 3.0 18:57:23 10° SSW 19:02:24 74° SE 19:02:24 74° SE
CZ-2C R/B 3.7 19:00:37 10° SW 19:01:12 12° SW 19:01:12 12° SW
Cosmos 1447 Rocket 4.4 18:57:07 10° N 19:03:17 84° W 19:07:12 24° S
Cosmos 1153 Rocket 4.4 19:00:35 10° S 19:06:58 90° E 19:13:25 10° N
Tiangong 4.0 19:05:54 10° WSW 19:06:42 16° WSW 19:06:42 16° WSW
Cosmos 2322 Rocket 2.4 19:05:27 10° SW 19:11:01 66° WNW 19:14:14 26° NNE
ATLAS 5 CENTAUR R/B 4.0 19:09:18 10° WNW 19:12:03 17° NNW 19:13:58 14° N
Meteor 2-10 Rocket 4.2 19:06:38 10° SSW 19:12:11 58° WNW 19:17:33 10° N
SL-8 R/B 4.4 19:10:09 10° W 19:14:17 51° NW 19:14:17 51° NW
Cosmos 1844 4.0 19:11:34 10° NNW 19:16:16 55° N 19:16:16 55° N
Cosmos 2360 Rocket 2.8 19:17:47 10° SSW 19:21:41 47° SSW 19:21:41 47° SSW
H-2A R/B 3.8 19:20:12 10° N 19:23:47 29° WNW 19:27:23 10° SW
NOSS 3-1 (C) 4.1 19:24:26 10° WSW 19:29:33 45° NW 19:31:34 34° N
CENTAUR R/B 4.5 19:26:08 10° NNW 19:31:56 22° NNE 19:32:45 22° NNE
Cosmos 2344 4.3 19:23:41 10° NW 19:33:06 83° SW 19:38:08 43° SSE
